Tracking 22836 objects as of 18-Apr-2021
HD Live streaming from Space Station
objects crossing your sky now

DELTA 1 DEB

Track DELTA 1 DEB now!
10-day predictions


NORAD ID: 7180
Int'l Code: 1973-086ER
Perigee: 1,243.9 km
Apogee: 1,476.1 km
Inclination: 102.2 °
Period: 112.7 minutes
Semi major axis: 7731 km
RCS: 0.1012 m2 (medium)
Launch date: November 6, 1973
Source: United States (US)
Launch site: AIR FORCE WESTERN TEST RANGE (AFWTR)

Note: This is SATELLITE DEBRIS
aabbcc
Your satellite tracking list
Your tracking list is empty




NASA's NSSDC Master Catalog

Two Line Element Set (TLE):
1 07180U 73086ER  21107.39822922  .00000070  00000-0  53363-3 0  9998
2 07180 102.2294  36.2730 0150156 273.9555 206.7754 12.77169497199602
Source of the keplerian elements: AFSPC